Погода в Махдие

Тунис     35°29′32″N   11°02′42″E
темп.,
°C
ветер,
м/с
пор.,
м/с
влажн.,
%
обл.,
%
осадки,
мм/ч
давл.,
гПа
погр.,
м
15 августа, пн
пн1501:00+28ю33600 0.0 101046
04:00+28ю44580 0.0 100960
07:00+29ю57615 0.0 1009276
10:00+37ю55315 0.0 1009770
13:00+39юв863190 0.0 1008916
16:00+36юв883933 0.0 1006437
19:00+34вюв564471 0.0 1006246
22:00+30ссв8137449 0.0 1011677
16 августа, вт
вт1601:00+29ссв587655 0.0 1011336
04:00+28ссв117861 0.0 101018
07:00+29зсз116786 0.0 1011120
10:00+35вюв213788 0.0 1011666
13:00+38вюв533081 0.0 10111019
16:00+33в87496 0.0 1011345
19:00+31вюв57667 0.0 1012272
22:00+29в24735 0.0 1014115
17 августа, ср
ср1701:00+29юв33720 0.0 101340
04:00+28ююв33740 0.0 101132
07:00+29ю46693 0.0 1012223
10:00+36ююв56335 0.0 1013706
13:00+39ююв78250 0.0 1011925
16:00+38ююв78270 0.0 1010778
19:00+32юв610579 0.0 1009246
22:00+30юв610734 0.0 1011236
18 августа, чт
чт1801:00+29ю23737 0.0 101147
04:00+28вюв45784 0.0 101176
07:00+30ююв712665 0.0 1011347
10:00+39ю8112613 0.0 1011769
13:00+43ююв9101723 0.0 10091349
16:00+38ююв1011305 0.0 1008402
19:00+32ююв813550 0.0 1007244
22:00+30с556693 0.0 101090
19 августа, пт
пт1901:00+28с810800 0.0 1012359
04:00+27с8117871 0.0 1012434
07:00+28с910705 0.0 1013594
10:00+31с995384 0.0 1014906
13:00+33ссв88413 0.0 10131299
16:00+32ссв1011390 0.0 10131043
19:00+29с1114510 0.0 1013678
22:00+27с1114635 0.0 1015742